Skip Navigation Links
NOAA logo - Click to go to the NOAA homepage
NOAA's National Weather Service
Alaska Aviation Weather Unit
  NWS logo - Click to go to the NWS homepage
Left Navbar Graphic     19 AKDT = 03 GMT

   
NOAA is celebrating 200 years of science, service, and stewardship. Visit the NOAA 200th celebration Web site to learn more.
USA.gov is the U.S. Government's official Web portal to all Federal, state and local government Web resources and services.
Facebook
NWS on Facebook

Important Change Regarding the AAWU Web Presence

 

Over the last several months, the AAWU has been working to navigate its webpages to a nationally supported server. Security, as well as other needs, have necessitated the change.  In the process, we have made an effort to enhance the functionality of our website, as well as some of our products. As of June 20, 2017, aawu.arh.noaa.gov will be discontinued. The new AAWU web address is weather.gov/aawu. It is now live and will run in-parallel with the old site until it is discontinued. Please send any feedback or questions regarding the new webpages to nws.ar.aawu.webauthors@noaa.gov.  Thank you for your patience during this time of transition.
AAWU Home :: Display TAF Add Bookmark
TAF PAJN 242340Z 2500/2524 VRB04KT P6SM SCT035 OVC050
     FM250400 07004KT P6SM FEW025 SCT035 OVC050
     FM251200 09003KT P6SM VCSH SCT025 OVC040
     FM252100 12008KT P6SM VCSH SCT025 OVC040=
METAR PAJN 242153Z VRB03KT 10SM FEW036 OVC050 12/03 A3023=

METAR PAJN 242253Z 00000KT 10SM FEW035 BKN055 OVC140 12/02 A3022=

METAR PAJN 242353Z 30005KT 10SM BKN055 BKN110 OVC180 13/03 A3021=

METAR PAJN 250053Z 29007KT 10SM FEW043 BKN055 BKN110 OVC190 13/02
     A3020=

METAR PAJN 250153Z 27009KT 10SM BKN050 OVC090 12/03 A3020=

METAR PAJN 250253Z 24009KT 10SM BKN048 OVC085 11/04 A3020 RMK AO2 SLP226
     T01060039 56004=


NOAA's National Weather Service
Alaska Aviation Weather Unit
6930 Sand Lake Road
Anchorage, AK 99502-1845
Disclaimer
Credits
Glossary
Privacy Policy
About Us
Career Opportunities
Contact AAWU Internet Services Site last modified: April, 17th 2012